[ ตารางข้อมูล ] [ Min-Max ] [ วันนี้2 ] [ วันนี้4 ] [ เทียบ-A 3วัน ] [ เทียบ-B 4วัน ]   

วันนี้4   [ ◀ ช่วงเก่ากว่า ] [ ช่วงที่ 22 ] [ ช่วงใหม่กว่า ▶ ] [ ล่าสุด ]    [ 3 ชั่วโมง ] [ 6 ชั่วโมง ] [ 12 ชั่วโมง ] [ 24 ชั่วโมง ]   วันนี้4

อุณภูมิในตู้ Knockdown4529  ราย 24 ชั่วโมง  ที่วัดได้ ในช่วงวันเวลา 10/08/2026 (20:56) ถึง 11/08/2026 (20:56) 
ความชื้นในตู้ Knockdown4529  ราย 24 ชั่วโมง  ที่วัดได้ ในช่วงวันเวลา 10/08/2026 (20:56) ถึง 11/08/2026 (20:56) 
การใช้ไฟฟ้าในตู้ Knockdown4529  ราย 24 ชั่วโมง  ที่วัดได้ ในช่วงวันเวลา 10/08/2026 (20:56) ถึง 11/08/2026 (20:56) 

  DS18B20SHTC3PZEM-004TWiFi 
IDDate d/m/Y & Timedata1
สูง
data2
ต่ำ
data3
นอก
temp
pcb
hum
pcb
VoltAmpWattrssiTime
 11712  11/08/2026 20:53:23  32.3  32.4  30.2  33.3  67.0  230.0  0.04  4.6  -78  20:53 
 11711  11/08/2026 20:48:39  32.3  32.5  30.2  33.5  67.0  227.7  0.04  4.6  -78  20:48 
 11710  11/08/2026 20:43:56  32.4  32.5  30.4  33.2  66.9  230.5  0.04  4.6  -75  20:43 
 11709  11/08/2026 20:39:13  32.4  32.6  30.4  33.4  66.8  229.2  0.04  4.6  -79  20:39 
 11708  11/08/2026 20:34:30  32.4  32.6  30.3  33.5  66.8  230.4  0.04  4.6  -76  20:34 
 11707  11/08/2026 20:29:46  32.5  32.6  30.2  33.5  66.8  230.4  0.04  4.6  -76  20:29 
 11706  11/08/2026 20:25:03  32.5  32.6  30.2  33.6  66.8  232.2  0.04  4.6  -77  20:25 
 11705  11/08/2026 20:20:20  32.5  32.7  30.2  33.7  66.8  233.3  0.04  4.6  -76  20:20 
 11704  11/08/2026 20:15:37  32.6  32.8  30.2  33.6  66.7  233.8  0.04  4.6  -77  20:15 
 11703  11/08/2026 20:10:54  32.6  32.8  30.3  33.6  66.7  233.6  0.04  4.6  -78  20:10 
 11702  11/08/2026 20:06:11  32.6  32.8  30.4  33.6  66.6  231.6  0.04  4.6  -77  20:06 
 11701  11/08/2026 20:01:28  32.7  32.8  30.4  33.6  66.5  233.6  0.04  4.6  -78  20:01 
 11700  11/08/2026 19:56:45  32.7  32.9  30.5  33.8  66.5  233.1  0.04  4.6  -77  19:56 
 11699  11/08/2026 19:52:02  32.8  32.9  30.5  33.8  66.5  231.2  0.04  4.6  -77  19:52 
 11698  11/08/2026 19:47:18  32.8  32.9  30.7  33.6  66.3  231.2  0.04  4.6  -77  19:47 
 11697  11/08/2026 19:42:35  32.8  33.0  30.8  33.7  66.2  231.2  0.04  4.6  -78  19:42 
 11696  11/08/2026 19:37:51  32.8  33.0  30.9  33.8  66.2  230.7  0.04  4.6  -78  19:37 
 11695  11/08/2026 19:33:08  32.9  33.1  31.3  33.8  66.1  231.7  0.04  4.5  -78  19:33 
 11694  11/08/2026 19:28:24  32.9  33.1  31.4  34.0  66.0  231.2  0.04  4.6  -77  19:28 
 11693  11/08/2026 19:23:41  32.9  33.1  31.4  34.1  65.9  229.4  0.04  4.5  -78  19:23 
 11692  11/08/2026 19:18:57  33.0  33.2  31.4  34.1  65.6  231.3  0.04  4.5  -76  19:18 
 11691  11/08/2026 19:14:14  33.1  33.2  31.5  34.1  65.7  229.7  0.04  4.6  -77  19:14 
 11690  11/08/2026 19:09:30  33.1  33.2  31.6  34.1  65.5  228.1  0.04  4.5  -77  19:09 
 11689  11/08/2026 19:04:47  33.3  33.3  31.7  34.2  65.5  226.5  0.04  4.5  -79  19:04 

Data every 5 minute.


ใช้เวลาประมวลผล 0.05429 วินาที